Weather Roundup
Issued by NWS Springfield, MO

Home | Current Version | Previous Version | Text Only | Print | Product List | Glossary On
Versions: 1 2 3 4 5 6 7 8 9 10 11 12 13 14 15 16 17 18 19 20 21 22 23 24 25 26 27 28 29 30 31 32 33 34 35 36 37 38 39 40 41 42 43 44 45 46 47 48 49 50
000
NZUS99 KSGF 280457
HRRSGF

HOURLY WEATHER
NATIONAL WEATHER SERVICE SPRINGFIELD MO
1200 AM CDT SUN MAY 28 2017

......SGF CWA......

CITY           SKY/WX    TMP DP  RH WIND       PRES   REMARKS
SPRINGFIELD    CLOUDY    64  63  96 S8        29.83R
JOPLIN         CLOUDY    68  66  93 S5        29.86R
WEST PLAINS    TSTM      62  60  93 SW12      29.90R
ROLLA          CLOUDY    61  61 100 N10       29.82R FOG

......SURROUNDING SGF CWA......

CITY           SKY/WX    TMP DP  RH WIND       PRES   REMARKS
CHANUTE        CLOUDY    66  59  78 NW3       29.88R
PARSONS        CLOUDY    67  59  75 N7        29.89R
COFFEYVILLE    CLOUDY    69  66  90 NE3       29.89R
EMPORIA        PTCLDY    63  60  90 N7        29.90R
HARRISON AR    LGT RAIN  66  61  84 W13G24    29.87S

......KANSAS AND MISSOURI......

CITY           SKY/WX    TMP DP  RH WIND       PRES   REMARKS
KANSAS CTY INT CLOUDY    63  60  90 N5        29.87R
SEDALIA        CLOUDY    63  63 100 NW5       29.84F
ST JOSEPH      PTCLDY    61  61 100 N3        29.88R
ST LOUIS       CLOUDY    66  61  84 W3        29.80R
WICHITA        CLOUDY    69  62  78 N13       29.93R
TOPEKA         CLEAR     63  62  97 NW5       29.88R
OLATHE         CLOUDY    66  64  93 N7        29.87S

......TENNESSEE......

CITY           SKY/WX    TMP DP  RH WIND       PRES   REMARKS
MEMPHIS        NOT AVBL
NASHVILLE      CLOUDY    65  64  97 S8        29.94S

......ARKANSAS.......

CITY           SKY/WX    TMP DP  RH WIND       PRES   REMARKS
FAYETTEVILLE   CLOUDY    64  64 100 SE3       29.85F
FT SMITH       CLOUDY    83  72  69 NW5       29.83R THUNDER HAZE
LITTLE ROCK    CLOUDY    78  76  93 SE7       29.82S FOG

......OKLAHOMA.......

CITY           SKY/WX    TMP DP  RH WIND       PRES   REMARKS
TULSA          CLOUDY    74  68  81 NE5       29.83R
PONCA CITY     CLOUDY    70  61  73 N8        29.88R
MCALESTER      TSTM      77  67  71 E10G17    29.77F
OKLAHOMA CITY  CLOUDY    76  63  64 N21G30    29.83R

......IOWA............

CITY           SKY/WX    TMP DP  RH WIND       PRES   REMARKS
DES MOINES     NOT AVBL
QUAD CITIES    CLOUDY    63  60  90 NW3       29.80F

......ILLINOIS........

CITY           SKY/WX    TMP DP  RH WIND       PRES   REMARKS
QUINCY         CLOUDY    67  64  90 W5        29.80S
CHICAGO        CLOUDY    64  53  67 CALM      29.82F




USA.gov is the U.S. government's official web portal to all federal, state and local government web resources and services.